Weather History for Prairie Du Chien, WI

Change the Weather History Date:

Saturday, February 22, 2014

  Actual Average Record
Temperature  
Mean Temperature 16 °F -  
Max Temperature 22 °F 38 °F 64 °F (1984)
Min Temperature 10 °F 18 °F -11 °F (1978)
Degree Days  
Heating Degree Days 49    
Moisture  
Dew Point 6 °F    
Average Humidity 64    
Maximum Humidity 76    
Minimum Humidity 53    
Precipitation  
Precipitation 0.00 in - - ()
Sea Level Pressure  
Sea Level Pressure 30.00 in    
Wind  
Wind Speed 6 mph (West)    
Max Wind Speed 14 mph    
Max Gust Speed 20 mph    
Visibility 10 miles    
Events      
Averages and records for this station are not official NWS values.
T = Trace of Precipitation, MM = Missing Value Source: NWS Daily Summary

Daily Weather History Graph

Daily Weather History Graph

Search for Another Location

Airport:

Trip Planner

Search our weather history database for the weather conditions in past years. The results will help you decide how hot, cold, wet, or windy it might be!

Date:

Astronomy

Feb. 22, 2014 Rise Set
Actual Time 6:51 AM CST 5:44 PM CST
Civil Twilight 6:22 AM CST 6:13 PM CST
Nautical Twilight 5:49 AM CST 6:46 PM CST
Astronomical Twilight 5:17 AM CST 7:19 PM CST
Moon 12:50 AM CST 10:52 AM CST
Length of Visible Light 11h 50m
Length of Day
10h 53m
Waning Gibbous, 50% of the Moon is Illuminated
Feb 22
Waning Gibbous
Mar 1
New
Mar 8
First Quarter
Mar 16
Full
Mar 23
Last Quarter

Hourly Weather History & Observations

Time (CST) Temp. Windchill Dew Point Humidity Pressure Visibility Wind Dir Wind Speed Gust Speed Precip Events Conditions
12:15 AM 17.8 °F 10.9 °F 7.7 °F 65% 29.83 in 10.0 mi West 4.6 mph - N/A   Clear
12:35 AM 17.8 °F 12.5 °F 7.7 °F 65% 29.84 in 10.0 mi WSW 3.5 mph - N/A   Clear
12:55 AM 17.4 °F 10.4 °F 7.7 °F 66% 29.85 in 10.0 mi West 4.6 mph - N/A   Clear
1:15 AM 17.1 °F 10.0 °F 7.3 °F 66% 29.85 in 10.0 mi WSW 4.6 mph - N/A   Clear
1:35 AM 16.7 °F 11.2 °F 7.3 °F 67% 29.86 in 10.0 mi WSW 3.5 mph - N/A   Clear
1:55 AM 16.9 °F 8.5 °F 7.3 °F 66% 29.86 in 10.0 mi WSW 5.8 mph - N/A   Clear
2:15 AM 16.7 °F 9.6 °F 7.3 °F 67% 29.87 in 10.0 mi WSW 4.6 mph - N/A   Clear
2:35 AM 15.6 °F 8.3 °F 6.6 °F 68% 29.87 in 10.0 mi West 4.6 mph - N/A   Clear
2:55 AM 14.7 °F 9.0 °F 6.3 °F 69% 29.88 in 10.0 mi WNW 3.5 mph - N/A   Clear
3:15 AM 14.2 °F - 6.3 °F 71% 29.88 in 10.0 mi Calm Calm - N/A   Clear
3:35 AM 13.6 °F - 5.7 °F 71% 29.90 in 10.0 mi Calm Calm - N/A   Clear
3:55 AM 12.6 °F - 5.4 °F 73% 29.90 in 10.0 mi Calm Calm - N/A   Clear
4:15 AM 12.9 °F - 6.6 °F 76% 29.91 in 10.0 mi Calm Calm - N/A   Clear
4:35 AM 12.9 °F - 5.5 °F 72% 29.91 in 10.0 mi Calm Calm - N/A   Clear
4:55 AM 13.3 °F 7.3 °F 5.4 °F 71% 29.91 in 10.0 mi WNW 3.5 mph - N/A   Clear
5:15 AM 13.1 °F - 5.2 °F 71% 29.93 in 10.0 mi Calm Calm - N/A   Clear
5:35 AM 12.7 °F - 5.0 °F 71% 29.94 in 10.0 mi Calm Calm - N/A   Clear
5:55 AM 13.1 °F 2.8 °F 4.6 °F 69% 29.95 in 10.0 mi WNW 6.9 mph - N/A   Clear
6:15 AM 12.7 °F - 4.6 °F 70% 29.94 in 10.0 mi Calm Calm - N/A   Clear
6:35 AM 13.3 °F - 4.6 °F 68% 29.96 in 10.0 mi Calm Calm - N/A   Scattered Clouds
6:55 AM 12.9 °F - 4.3 °F 68% 29.96 in 10.0 mi Calm Calm - N/A   Scattered Clouds
7:15 AM 12.9 °F 3.8 °F 4.5 °F 69% 29.97 in 10.0 mi West 5.8 mph - N/A   Clear
7:35 AM 12.9 °F 1.6 °F 4.5 °F 69% 29.98 in 10.0 mi West 8.1 mph - N/A   Clear
7:55 AM 13.5 °F 3.3 °F 4.3 °F 67% 29.99 in 10.0 mi West 6.9 mph - N/A   Scattered Clouds
8:15 AM 13.8 °F 1.0 °F 4.1 °F 65% 30.00 in 10.0 mi West 10.4 mph - N/A   Mostly Cloudy
8:35 AM 14.0 °F 1.2 °F 4.1 °F 65% 30.01 in 10.0 mi WNW 10.4 mph - N/A   Scattered Clouds
8:55 AM 14.9 °F 4.0 °F 4.6 °F 64% 30.00 in 10.0 mi West 8.1 mph - N/A   Scattered Clouds
9:15 AM 16.5 °F 5.1 °F 4.8 °F 60% 30.00 in 10.0 mi West 9.2 mph - N/A   Mostly Cloudy
9:35 AM 17.4 °F 6.2 °F 5.4 °F 59% 30.01 in 10.0 mi West 9.2 mph - N/A   Overcast
9:55 AM 17.4 °F 4.1 °F 5.4 °F 59% 30.01 in 10.0 mi West 12.7 mph - N/A   Overcast
10:15 AM 17.8 °F 5.9 °F 5.7 °F 59% 30.03 in 10.0 mi West 10.4 mph - N/A   Overcast
10:35 AM 19.2 °F 8.4 °F 5.7 °F 56% 30.03 in 10.0 mi West 9.2 mph - N/A   Scattered Clouds
10:55 AM 19.6 °F 7.4 °F 6.1 °F 56% 30.01 in 10.0 mi West 11.5 mph - N/A   Mostly Cloudy
11:15 AM 20.3 °F 7.7 °F 5.9 °F 54% 30.03 in 10.0 mi West 12.7 mph - N/A   Scattered Clouds
11:35 AM 21.0 °F 9.3 °F 6.4 °F 53% 30.03 in 10.0 mi West 11.5 mph - N/A   Clear
11:55 AM 20.8 °F 7.9 °F 6.4 °F 54% 30.03 in 10.0 mi West 13.8 mph 19.6 mph N/A   Clear
12:15 PM 20.8 °F 8.4 °F 6.3 °F 53% 30.03 in 10.0 mi West 12.7 mph 19.6 mph N/A   Clear
12:35 PM 21.2 °F 10.1 °F 6.4 °F 53% 30.02 in 10.0 mi West 10.4 mph 17.3 mph N/A   Clear
12:55 PM 22.1 °F 12.0 °F 7.5 °F 54% 30.01 in 10.0 mi West 9.2 mph - N/A   Clear
1:15 PM 22.1 °F 11.3 °F 7.5 °F 54% 30.01 in 10.0 mi West 10.4 mph - N/A   Clear
1:35 PM 22.5 °F 13.2 °F 7.9 °F 54% 30.01 in 10.0 mi WSW 8.1 mph - N/A   Clear
1:55 PM 22.1 °F 12.0 °F 7.3 °F 53% 30.01 in 10.0 mi West 9.2 mph - N/A   Clear
2:15 PM 21.9 °F 10.4 °F 7.5 °F 54% 30.00 in 10.0 mi West 11.5 mph - N/A   Clear
2:35 PM 21.7 °F 10.2 °F 7.5 °F 54% 30.00 in 10.0 mi West 11.5 mph - N/A   Clear
2:55 PM 21.7 °F 9.6 °F 7.9 °F 55% 30.01 in 10.0 mi West 12.7 mph - N/A   Clear
3:15 PM 21.9 °F 10.4 °F 7.9 °F 55% 30.02 in 10.0 mi West 11.5 mph - N/A   Clear
3:35 PM 21.2 °F 9.5 °F 7.5 °F 56% 30.02 in 10.0 mi West 11.5 mph - N/A   Clear
3:55 PM 21.2 °F 9.5 °F 8.1 °F 57% 30.02 in 10.0 mi WNW 11.5 mph - N/A   Clear
4:15 PM 20.3 °F 7.2 °F 7.7 °F 58% 30.02 in 10.0 mi WNW 13.8 mph - N/A   Clear
4:35 PM 20.3 °F 7.7 °F 7.7 °F 58% 30.02 in 10.0 mi WNW 12.7 mph - N/A   Clear
5:15 PM 19.2 °F 6.4 °F 7.3 °F 60% 30.03 in 10.0 mi West 12.7 mph 17.3 mph N/A   Clear
5:35 PM 18.5 °F 5.5 °F 7.0 °F 61% 30.05 in 10.0 mi West 12.7 mph - N/A   Clear
6:15 PM 17.4 °F 5.4 °F 6.8 °F 63% 30.07 in 10.0 mi West 10.4 mph - N/A   Clear
6:35 PM 16.5 °F 4.3 °F 6.6 °F 65% 30.08 in 10.0 mi WNW 10.4 mph - N/A   Clear
6:55 PM 16.2 °F 3.9 °F 6.6 °F 66% 30.09 in 10.0 mi West 10.4 mph - N/A   Clear
7:15 PM 15.3 °F 2.8 °F 6.6 °F 69% 30.09 in 10.0 mi West 10.4 mph - N/A   Clear
7:35 PM 14.5 °F 3.6 °F 6.4 °F 70% 30.09 in 10.0 mi West 8.1 mph - N/A   Clear
7:55 PM 14.7 °F 2.9 °F 6.3 °F 69% 30.10 in 10.0 mi West 9.2 mph - N/A   Clear
8:15 PM 14.0 °F 2.0 °F 5.9 °F 70% 30.11 in 10.0 mi West 9.2 mph - N/A   Clear
8:35 PM 13.8 °F 1.8 °F 5.7 °F 70% 30.12 in 10.0 mi West 9.2 mph - N/A   Clear
8:55 PM 13.6 °F 1.6 °F 5.5 °F 70% 30.13 in 10.0 mi West 9.2 mph - N/A   Clear
9:15 PM 13.1 °F 1.8 °F 5.0 °F 70% 30.13 in 10.0 mi West 8.1 mph - N/A   Clear
9:35 PM 11.7 °F -0.9 °F 4.5 °F 73% 30.13 in 10.0 mi West 9.2 mph - N/A   Clear
9:55 PM 11.3 °F -2.2 °F 4.1 °F 73% 30.12 in 10.0 mi West 10.4 mph - N/A   Clear
10:15 PM 11.1 °F -0.6 °F 3.7 °F 72% 30.13 in 10.0 mi West 8.1 mph - N/A   Clear
10:35 PM 11.1 °F -0.6 °F 3.4 °F 71% 30.13 in 10.0 mi West 8.1 mph - N/A   Clear
10:55 PM 10.4 °F -2.4 °F 3.2 °F 73% 30.13 in 10.0 mi West 9.2 mph - N/A   Clear
11:15 PM 10.9 °F -2.6 °F 3.2 °F 71% 30.14 in 10.0 mi WNW 10.4 mph - N/A   Clear
11:35 PM 10.8 °F -3.6 °F 3.0 °F 71% 30.14 in 10.0 mi WNW 11.5 mph - N/A   Clear
11:55 PM 10.6 °F -3.1 °F 3.0 °F 72% 30.14 in 10.0 mi West 10.4 mph - N/A   Clear